Regional Weather Roundup
Issued by NWS

Home | Current Version | Previous Version | Text Only | Print | Product List | Glossary Off
Versions: 1 2 3 4 5 6 7 8 9 10 11 12 13 14 15 16 17 18 19 20 21 22 23 24 25 26 27

000
ASUS45 KBOU 290507
RWRCO

WEATHER ROUNDUP FOR COLORADO
NATIONAL WEATHER SERVICE DENVER/BOULDER CO
1100 PM MDT FRI APR 28 2017

NOTE: "FAIR" INDICATES FEW OR NO CLOUDS BELOW 12000 FEET WITH NO
SIGNIFICANT WEATHER AND/OR OBSTRUCTIONS TO VISIBILITY.

COZ001>005-013-030-031-290600-
...NORTHWEST COLORADO...

CITY           SKY/WX    TMP DP  RH WIND       PRES   REMARKS
CRAIG          FAIR      34  28  79 NE3       29.90S
HAYDEN         FAIR      32  25  74 E8        29.90S WCI  25
MEEKER         CLOUDY    31  30  96 MISG      29.88S
MOUNT WERNER   NOT AVBL
STEAMBOAT SPGS MOCLDY    32  19  59 NE16G29   29.89S WCI  21
WALDEN           N/A     23  12  63 NE15G21   29.98R WCI  10
$$

COZ006>008-011-290600-
...WEST CENTRAL VALLEYS...

CITY           SKY/WX    TMP DP  RH WIND       PRES   REMARKS
GRAND JUNCTION FAIR      39  27  62 W8        29.84R
MONTROSE       CLOUDY    39  24  55 SE12      29.83R
EAGLE          CLOUDY    33  29  85 N5        29.87S WCI  29
RIFLE          CLOUDY    38  26  62 W6        29.84S
DELTA          FAIR      41  27  57 N7        29.81S
NUCLA          MOCLDY    36  23  60 CALM      29.86S
$$

COZ017>023-064>068-290600-
...SOUTHWEST COLORADO...

CITY           SKY/WX    TMP DP  RH WIND       PRES   REMARKS
DURANGO        FAIR      30  24  78 SE3       29.82R
CORTEZ         CLOUDY    32  26  78 E6        29.83R WCI  26
PAGOSA SPRINGS MOCLDY    32  26  77 CALM      29.84R
TELLURIDE      LGT SNOW  23  23  97 CALM      29.85R
WOLF CREEK PAS CLOUDY    14  14 100 SE10G18   29.87R WCI   1
$$

COZ009-010-012-014-032>034-037-058>063-290600-
...CENTRAL COLORADO...

CITY           SKY/WX    TMP DP  RH WIND       PRES   REMARKS
ASPEN          CLOUDY    30  23  75 W8        29.81S WCI  22
BUENA VISTA    CLOUDY    29  22  73 NE5G21    29.90S WCI  24
COPPER MTN     LGT SNOW  18  10  73 MISG      29.86F
BERTHOUD PASS  HVY SNOW   5  -6  61 E38G47    29.89F VSB 1/4 WCI -21
COTTONWOOD PAS LGT SNOW  25  21  86 E20G35    29.89R WCI  11
GUNNISON       CLOUDY    32  21  64 W9        29.81R WCI  24
KREMMLING      CLOUDY    34  23  64 E13       29.94R WCI  25
LEADVILLE      LGT SNOW  20  14  77 VRB5      29.84F WCI  13
MONARCH PASS   CLOUDY    16  12  86 E41G51    29.86R WCI  -7
SALIDA         CLOUDY    31  29  92 N8        29.98R WCI  24
SUNLIGHT       LGT SNOW  19  18  93 NE5       29.88S WCI  13
WILKERSON PASS CLOUDY    14  10  85 NE16G29   29.89R WCI  -2
$$

COZ069>075-290600-
...SAN LUIS VALLEY/SANGRE DE CRISTO MOUNTAINS...

CITY           SKY/WX    TMP DP  RH WIND       PRES   REMARKS
ALAMOSA        MOCLDY    33  27  78 SW5       29.82R WCI  29
LA VETA PASS   SNOW      21  19  93 MISG      29.97R VSB 1/2
SAGUACHE       FAIR      28  21  74 W6        29.81F WCI  22
$$

COZ035-036-038>040-290600-
...NORTHERN COLORADO FRONT RANGE...

CITY           SKY/WX    TMP DP  RH WIND       PRES   REMARKS
DENVER INTL AP LGT SNOW  30  29  96 NE20      30.07R FOG     WCI  17
DMNS CITY PARK   N/A     30  30 100 NE14G23   30.08S WCI  20
AURORA         LGT SNOW  29  29  99 NE13      30.07R FOG     WCI  19
FRONT RANGE AP NOT AVBL
ERIE MUNI ARPT CLOUDY    31  30  97 NE12G20   30.12R FOG     WCI  22
BOULDER MUN AP LGT SNOW  32  30  93 NE9G18    30.12R WCI  24
CENTENNIAL     SNOW      28  28 100 N14       30.06R VSB 1/2 WCI  17
BROOMFIELD     NOT AVBL
FORT COLLINS   FLURRIES  31  29  92 NE10      30.12R WCI  22
LONGMONT       FLURRIES  33  31  90 NE10G18   30.14R WCI  25
$$

COZ041-046-047-076>085-087-088-290600-
...PIKES PEAK/PALMER DIVIDE AND SOUTHERN FOOTHILLS...

CITY           SKY/WX    TMP DP  RH WIND       PRES   REMARKS
COLO. SPRINGS  LGT SNOW  32  28  85 N21       30.00R FOG     WCI  20
A. F. ACADEMY  LGT SNOW  28  26  92 NW14G21   29.99S FOG     WCI  17
SCHRIEVER AFB  LGT SNOW  28  28  99 N28G36    29.98  VSB 3/4 WCI  13
ELLICOTT       HVY SNOW N/A N/A N/A NE26      29.95R
FALCON         LGT SNOW  28  26  96 NE20      29.99R WCI  14
FORT CARSON    LGT SNOW  31  29  92 N21       29.98R FOG     WCI  19
LIMON          LGT SNOW  30  30 100 NE21G28   30.00S FOG     WCI  17
MONUMENT HILL  LGT SNOW  25  23  93 NE14G21   30.01S WCI  13
TRINIDAD       HVY RAIN  36  34  92 NE16      29.87R VSB 1/2
$$

COZ042>045-048>051-090-091-290600-
...NORTHEAST COLORADO...

CITY           SKY/WX    TMP DP  RH WIND       PRES   REMARKS
GREELEY ARPT   FLURRIES  33  30  88 NE10      30.13R WCI  25
AKRON          LGT SNOW  31  29  92 NE22G29   30.08R FOG     WCI  18
BURLINGTON     NOT AVBL
WRAY           NOT AVBL
STERLING       CLOUDY    34  32  93 NE9       30.10R WCI  26
HOLYOKE        CLOUDY    37  34  87 N14       30.11S
FORT MORGAN    LGT RAIN  32  31  95 NE17      30.10R WCI  21
$$

COZ086-089-092>099-290600-
...SOUTHEAST COLORADO...

CITY           SKY/WX    TMP DP  RH WIND       PRES   REMARKS
PUEBLO         SNOW      33  31  92 NE17G28   29.96R VSB 1/2 WCI  22
LA JUNTA       MIX PCPN  36  34  92 NE30      29.89F
LAMAR          LGT RAIN  36  33  89 NE20G29   29.90S
SPRINGFIELD      N/A     42  42 100 E18       29.84R
$$




USA.gov is the U.S. government's official web portal to all federal, state and local government web resources and services.